This demonstration page uses our WeatherBlox Daily Observations layout. Learn more.

Left ArrowRight Arrow

41.12389, -100.76542

Hourly Observations for November 17, 2015

Temp ( °F °C ) Dew Point ( °F °C ) Humidity (%) Winds ( mph kmh ) Pressure ( in mb ) Visibility ( mi km ) Precip ( " mm )
12:53 am 00:53 Cloudy 42 5.6 36 2.2 79 79 N 30 48 29.47 998 10 16 0.00 0.00
1:43 am 01:43 Cloudy 40 4.4 35 1.7 83 83 N 23 37 29.56 1001 10 16 0.00 0.00
1:53 am 01:53 Cloudy 40 4.4 35 1.7 83 83 NNE 26 43 29.49 999 10 16 0.00 0.00
2:53 am 02:53 Cloudy 38 3.3 33 0.6 83 83 N 22 35 29.54 1001 10 16 0.00 0.00
3:53 am 03:53 Cloudy with Light Rain 36 2.2 32 0 86 86 N 18 30 29.55 1001 10 16 0.00 0.03
4:11 am 04:11 Cloudy with Light Rain 36 2 32 0 87 87 N 16 26 29.65 1004 10 16 0.00 0.00
4:53 am 04:53 Cloudy 36 2.2 32 0 86 86 N 23 37 29.60 1002 10 16 0.00 0.03
5:09 am 05:09 Cloudy 36 2 30 -1 81 81 N 23 37 29.62 1003 10 16 0.00 0.00
5:41 am 05:41 Cloudy 35 1.7 31 -0.6 85 85 N 20 31 29.62 1003 10 16 0.00 0.00
5:53 am 05:53 Cloudy 35 1.7 31 -0.6 85 85 N 25 41 29.58 1002 10 16 0.00 0.00
6:43 am 06:43 Cloudy 35 1.7 30 -1.1 82 82 N 26 43 29.65 1004 10 16 0.00 0.00
6:53 am 06:53 Cloudy 35 1.7 30 -1.1 82 82 N 25 41 29.61 1003 10 16 0.00 0.00
7:06 am 07:06 Cloudy 35 1.7 31 -0.6 85 85 N 13 20 29.68 1005 10 16 0.00 0.00
7:27 am 07:27 Cloudy 34 1 30 -1 87 87 N 24 39 29.71 1006 10 16 0.00 0.00
7:34 am 07:34 Cloudy with Light Wintry Mix 34 1.1 30 -1.1 85 85 N 20 31 29.68 1005 10 16 0.00 0.03
7:53 am 07:53 Cloudy with Light Rain 34 1.1 30 -1.1 85 85 N 25 41 29.62 1003 10 16 0.00 0.03
8:53 am 08:53 Cloudy with Light Wintry Mix 33 0.6 29 -1.7 85 85 N 24 39 29.62 1003 9 14 0.00 0.03
9:53 am 09:53 Cloudy with Light Rain 33 0.6 29 -1.7 85 85 N 21 33 29.66 1004 10 16 0.01 0.25
10:07 am 10:07 Cloudy 33 0.6 29 -1.7 85 85 NNW 20 31 29.74 1007 10 16 0.00 0.03
10:53 am 10:53 Cloudy 33 0.6 29 -1.7 85 85 NNW 18 30 29.67 1005 10 16 0.00 0.03
11:13 am 11:13 Cloudy 33 0.6 28 -2.2 82 82 NNW 14 22 29.74 1007 10 16 0.00 0.00
11:53 am 11:53 Cloudy with Light Rain 32 0 28 -2.2 85 85 NNW 22 35 29.67 1005 10 16 0.01 0.25
12:03 pm 12:03 Cloudy with Light Freezing Rain 32 0 28 -2 87 87 N 20 31 29.74 1007 10 16 0.00 0.00
12:12 pm 12:12 Cloudy with Light Freezing Rain 32 0 28 -2 87 87 N 15 24 29.74 1007 10 16 0.00 0.00
12:28 pm 12:28 Cloudy with Freezing Rain 32 0 28 -2 87 87 N 17 28 29.71 1006 10 16 0.00 0.00
12:35 pm 12:35 Cloudy with Light Freezing Rain 32 0 28 -2.2 85 85 N 23 37 29.71 1006 10 16 0.02 0.51
12:53 pm 12:53 Cloudy with Light Wintry Mix 32 0 28 -2.2 85 85 N 23 37 29.63 1004 10 16 0.02 0.51
1:03 pm 13:03 Cloudy with Light Freezing Rain 32 0 28 -2 87 87 NNW 22 35 29.68 1005 10 16 0.00 0.00
1:42 pm 13:42 Cloudy 34 1 28 -2 81 81 NNW 22 35 29.65 1004 10 16 0.00 0.00
1:53 pm 13:53 Cloudy 33 0.6 28 -2.2 82 82 N 23 37 29.61 1003 10 16 0.01 0.25
2:53 pm 14:53 Cloudy with Light Rain 34 1.1 28 -2.2 79 79 N 21 33 29.57 1001 10 16 0.00 0.03
3:53 pm 15:53 Cloudy 34 1.1 27 -2.8 76 76 N 25 41 29.56 1001 10 16 0.00 0.03
4:53 pm 16:53 Cloudy 36 2 25 -4 65 65 N 20 31 29.62 1003 10 16 0.00 0.00
5:53 pm 17:53 Cloudy 36 2.2 24 -4.4 62 62 N 12 19 29.60 1003 10 16 0.00 0.00
6:53 pm 18:53 Cloudy 37 2.8 23 -5 57 57 NNW 14 22 29.60 1002 10 16 0.00 0.00
7:53 pm 19:53 Cloudy 38 3.3 22 -5.6 52 52 N 20 31 29.59 1002 10 16 0.00 0.00
8:53 pm 20:53 Cloudy with Light Rain 38 3.3 19 -7.2 46 46 NNW 17 28 29.57 1001 10 16 0.00 0.03
9:53 pm 21:53 Cloudy 38 3.3 18 -7.8 44 44 NNW 18 30 29.57 1001 10 16 0.00 0.03
10:53 pm 22:53 Cloudy 37 2.8 18 -7.8 46 46 NNW 18 30 29.53 1000 10 16 0.00 0.00
11:53 pm 23:53 Cloudy 36 2.2 19 -7.2 50 50 NNW 12 19 29.52 1000 10 16 0.00 0.00

Powered by AerisWeather